This is the latest recevied weather packets stored in our database for station/object K5RWS. If no packets are shown the sender has not sent any weather packets the latest 10 day(s).
| Time | Temp. | Humidity | Pressure | Rain* | Wind** | Luminosity | Snow |
|---|---|---|---|---|---|---|---|
| 1777445229 | 11.67° C | 13% | 1020.2 hPa | 0 mm | - | 0 W/m² | - |
| 1777444924 | 12.22° C | 12% | 1020.2 hPa | 0 mm | - | 0 W/m² | - |
| 1777444620 | 12.78° C | 12% | 1020.2 hPa | 0 mm | - | 0 W/m² | - |
| 1777444317 | 12.78° C | 12% | 1020.3 hPa | 0 mm | - | 0 W/m² | - |
| 1777444013 | 12.22° C | 12% | 1020.1 hPa | 0 mm | - | 0 W/m² | - |
| 1777443710 | 12.22° C | 12% | 1020.2 hPa | 0 mm | - | 0 W/m² | - |
| 1777443404 | 11.67° C | 12% | 1020.2 hPa | 0 mm | - | 0 W/m² | - |
| 1777443102 | 11.11° C | 13% | 1020.2 hPa | 0 mm | - | 0 W/m² | - |
| 1777442799 | 11.67° C | 12% | 1020.3 hPa | 0 mm | - | 0 W/m² | - |
| 1777442495 | 12.78° C | 13% | 1020.1 hPa | 0 mm | - | 0 W/m² | - |
| 1777442191 | 12.78° C | 12% | 1020 hPa | 0 mm | - | 0 W/m² | - |
| 1777441886 | 12.78° C | 12% | 1020.2 hPa | 0 mm | - | 0 W/m² | - |
| 1777441582 | 13.33° C | 11% | 1020.2 hPa | 0 mm | - | 0 W/m² | - |
| 1777441279 | 12.78° C | 12% | 1019.8 hPa | 0 mm | - | 0 W/m² | - |
| 1777440973 | 13.33° C | 12% | 1019.8 hPa | 0 mm | - | 0 W/m² | - |
| 1777440669 | 13.89° C | 11% | 1020 hPa | 0 mm | - | 0 W/m² | - |
| 1777440365 | 13.89° C | 11% | 1020 hPa | 0 mm | - | 0 W/m² | - |
| 1777440062 | 13.89° C | 11% | 1020.1 hPa | 0 mm | - | 0 W/m² | - |
| 1777439751 | 12.78° C | 12% | 1019.8 hPa | 0 mm | - | 0 W/m² | - |
| 1777439447 | 13.33° C | 12% | 1020 hPa | 0 mm | - | 0 W/m² | - |
| 1777439143 | 12.22° C | 12% | 1020 hPa | 0 mm | - | 0 W/m² | - |
| 1777438840 | 12.22° C | 12% | 1020.1 hPa | 0 mm | - | 0 W/m² | - |
| 1777438537 | 13.89° C | 11% | 1020.1 hPa | 0 mm | - | 0 W/m² | - |
| 1777438234 | 13.33° C | 12% | 1019.8 hPa | 0 mm | - | 0 W/m² | - |
| 1777437929 | 13.89° C | 11% | 1019.8 hPa | 0 mm | - | 0 W/m² | - |
* Rain latest hour (hover to see other rain measurements)
** Current wind speed in m/s (hover to see current wind gust speed)